Weather Service Report


215 
ASUS44 KEWX 131103
RWRTX 
SOUTH TEXAS REGIONAL WEATHER ROUNDUP
NATIONAL WEATHER SERVICE AUSTIN/SAN ANTONIO TX
500 AM CST SAT FEB 13 2016

NOTE: "FAIR" INDICATED FEW OR NO CLOUDS BELOW 12,000 FEET WITH NO
SIGNIFICANT WEATHER AND/OR OBSTRUCTIONS TO VISIBILITY.

* - THESE STATIONS ARE NOT NWS OR FAA STATIONS...AND ARE NOT SUBJECT
    TO NWS AND FAA QUALITY CONTROL.
 
TXZ171-172-183>190-131200-
TEXAS HILL COUNTRY AND EDWARDS PLATEAU
  
CITY           SKY/WX    TMP DP  RH WIND       PRES   REMARKS
JUNCTION       CLEAR     38  31  76 CALM      30.31S                  
*LLANO         CLEAR     41  36  81 CALM      30.35S                  
BURNET         CLEAR     51  35  54 NE6       30.34R                  
*HORSESHOE BAY CLEAR     42  37  85 CALM      30.31S                  
*KERRVILLE     CLEAR     41  37  87 CALM      30.30S                  
*FREDERICKSBRG CLEAR     38  34  82 CALM      30.30S                  
*ROCKSPRINGS   CLEAR     48  37  66 E7        30.30F WCI  45          
*BOERNE STAGE  CLEAR     41  36  81 CALM      30.30F                  
*CASTROVILLE   CLEAR     47  38  70 CALM      30.30S                  
HONDO          CLEAR     47  38  71 NE3       30.30S                  
*UVALDE        CLEAR     48  41  75 NE6       30.28S WCI  46          
DEL RIO        CLEAR     50  41  71 CALM      30.24S                  
LAUGHLIN AFB   CLEAR     51  42  71 E8        30.24S                  
CARRIZO SPRGS  CLEAR     46  45  93 CALM      30.25S                  
*EAGLE PASS    SUNNY     52  45  76 E9        30.25S                  
$$

TXZ173-191>194-202-209-217>225-228-131200-
CENTRAL AND SOUTH CENTRAL TEXAS
  
CITY           SKY/WX    TMP DP  RH WIND       PRES   REMARKS
GEORGETOWN     CLEAR     48  36  61 N7        30.32R WCI  45          
AUSTIN/BERGSTM CLEAR     47  38  71 N6        30.30S WCI  44          
AUSTIN/MABRY   CLEAR     54  38  54 NE3       30.31S                  
*AUSTIN/EXEC   CLOUDY    48  37  66 N6        30.31S WCI  46          
*LAGO VISTA    CLEAR     53  37  54 NE12      30.31S                  
SAN MARCOS     CLEAR     50  37  62 N7        30.31R WCI  47          
NEW BRAUNFELS  CLEAR     52  39  61 N6        30.28S                  
RANDOLPH AFB   CLEAR     47  41  78 N6        30.29R WCI  44          
PT SAN ANTONIO CLEAR     44  41  86 NW2       30.27R                  
SAN ANTONIO    CLEAR     50  41  71 NW5       30.29R WCI  48          
STINSON FIELD  CLEAR     52  41  66 CALM      30.28R                  
*PLEASANTON    CLEAR     46  44  92 CALM      30.29S                  
*LA GRANGE     CLEAR     49  48  96 CALM      30.28R                  
*GIDDINGS      CLEAR     51  44  77 NE5       30.34R                  
*GONZALES      CLEAR     47  47  97 CALM      30.28S                  
$$

TXZ163>164-176>182-195>201-210>213-226-227-235-131200-
SOUTHEAST TEXAS
  
CITY           SKY/WX    TMP DP  RH WIND       PRES   REMARKS
COLLEGE STN    PTCLDY    54  41  61 NE6       30.31R                  
*BRYAN         PTCLDY    50  40  67 NE5       30.33R WCI  48          
*CALDWELL      CLEAR     52  37  58 CALM      30.34R                  
*CROCKETT      CLEAR     43  37  81 NE3       30.37R                  
*BRENHAM       CLOUDY    57  51  80 CALM      30.32R                  
HUNTSVILLE     MOCLDY    51  42  71 CALM      30.32R                  
CONROE         CLOUDY    57  41  55 E5        30.31R                  
HOUSTON BUSH   MOCLDY    55  49  80 CALM      30.30R                  
HOUSTON HOBBY  MOCLDY    61  56  83 CALM      30.29R                  
*HOUSTON SW AP CLOUDY    53  52  96 CALM      30.30R                  
PEARLAND       CLOUDY    58  54  86 CALM      30.31R                  
HOUSTON HOOKS  MOCLDY    57  49  74 NE6       30.31R                  
ELLINGTON FLD  NOT AVBL                                               
SUGAR LAND     MOCLDY    59  56  89 N5        30.30R                  
*HOUSTON EXEC  CLOUDY    57  55  94 NE5       30.31R                  
*CLEVELAND MUN MOCLDY    54  48  82 CALM      30.31F                  
*WHARTON       FOG       56  55  96 CALM      30.31R VSB 1/2          
*COLUMBUS      FOG       50  50  99 CALM      30.29R VSB 1/2          
*EAGLE LAKE    PTSUNNY   50  49  99 CALM      30.30R FOG              
$$

TXZ214>216-236>238-131200-
THE UPPER TEXAS COAST
  
CITY           SKY/WX    TMP DP  RH WIND       PRES   REMARKS
*ORANGE        CLOUDY    54  45  71 NE6       30.32S                  
PORT ARTHUR    PTCLDY    55  48  77 NE6       30.31R                  
GALVESTON      PTCLDY    58  58 100 N5        30.30R                  
ANGLETON       FOG       51  51 100 N6        30.30R VSB 1            
*BAY CITY      FOG       52  52 100 N3        30.30R VSB 3/4          
PALACIOS       FOG       50  50 100 NE6       30.29R VSB 1/4 WCI  48  
$$

TXZ229>234-239>247-131200-
TEXAS COASTAL BEND AND RIO GRANDE PLAINS
  
CITY           SKY/WX    TMP DP  RH WIND       PRES   REMARKS
VICTORIA       FOG       51  51 100 N5        30.29R VSB 1/2          
*BEEVILLE      FOG       44  44 100 CALM      30.28R VSB 1/4          
ROCKPORT       FOG       53  51  93 CALM      30.28R VSB<1/4          
*PORT ARANSAS  MOCLDY    60  60 100 CALM      30.27R                  
*PORT LAVACA   FOG       51  51 100 CALM      30.28S VSB 1/2          
*INGLESIDE     FOG       45  45  99 CALM      30.27R VSB 1/4          
CORPUS CHRISTI PTCLDY    50  49  96 SE7       30.27R WCI  47          
CORPUS NAS     MOCLDY    59  59 100 SE5       30.27R FOG              
*ROBSTOWN      FOG       53  53  99 SE6       30.27S VSB 1            
ALICE          FOG       48  48 100 CALM      30.26R VSB 1/2          
KINGSVILLE NAS FOG       48  48 100 E3        30.26R VSB 1/4          
COTULLA        CLEAR     53  51  93 NE8       30.27R                  
*FAITH RANCH   CLEAR     54  48  82 NE7       30.24S                  
LAREDO         CLOUDY    58  57  97 SE9       30.24S FOG              
$$

TXZ248>255-131200-
DEEP SOUTH TEXAS
  
CITY           SKY/WX    TMP DP  RH WIND       PRES   REMARKS
BROWNSVILLE    CLEAR     58  57  97 SE5       30.26R                  
PORT ISABEL    PTCLDY    58  57  97 S6        30.25R                  
*SOUTH PADRE     N/A     63  61  94 CALM      30.26R                  
HARLINGEN      FOG       55  53  93 SE3       30.24R VSB 1/2          
*HEBBRONVILLE  NOT AVBL                                               
MCALLEN        FOG       59  57  93 SE3       30.26R VSB 1/4          
*WESLACO       PTCLDY    56  54  92 S3        30.24S                  
FALFURRIAS     CLOUDY    54  53  95 CALM      30.26R VSB 1/4          
EDINBURG       FOG       52  50  93 CALM      30.25S VSB<1/4          
*ZAPATA        PTCLDY    58  58 100 SE6       30.23S FOG              
$$

TXZ213>215-236>238-242>244-246-247-251-254-255-131200-
CMAN STATIONS
  
STATION/POSITION TIME  TEMP    WIND        PRES    WAVE
                       AIR SEA DIR/SP/G            HT/PER
                 (UTC) (F)     (DEG/KT/KT) (MB)    (FT/S)
SABINE PASS      1000   58 59   70/  4/  5 1026.9
SEA RIM ST PARK  1000   57      50/  5/  5 1026.1
NORTH JETTY/GLS  1000   61 61  330/  3/  3   N/A
EAGLE POINT      1000   60 57  340/  4/  4 1025.5
MORGANS POINT    1000   59 55  340/  2/  4 1025.6
MISSION/ARANSAS  1000   64                 1025.0
PORT O'CONNOR    1000          140/  2/  3   N/A
PORT ARANSAS     1000   63 64  120/  4/  4 1025.1
MALAQUITE BEACH  1000   64 64  130/  5/  6 1024.5
BAFFIN BAY       1000   62 63  130/  3/  4 1024.6
PORT ISABEL      1000   63 63  160/  4/  4 1023.8
$$

GMZ080-GMZ150>470-131200-
OFFSHORE BUOY REPORTS
  
STATION/POSITION TIME  TEMP    WIND        PRES    WAVE
                       AIR SEA DIR/SP/G            HT/PER
                 (UTC) (F)     (DEG/KT/KT) (MB)    (FT/S)
20 E GALVESTON   1050   60 60   20/  2/  2 1025.7    2/ 6
90 E PT ARANSAS  1050   66 63  180/  2/  2 1025.2    2/ 6
35 NE PT MANSFLD 1050   68 65  180/  8/ 10 1024.6    2/ 5
200 E PT ISABEL  1050                        N/A     1/ 5
$$
  

Return to Home page


Western Regional Climate Center, wrcc@dri.edu